Wind_Speed
4 4 4 4 4 4 3 3 3 4 7 9 10 10 10 10 10 10 10 10 11 11 12 12 12 11 10 9 9 10 11 12 12 12 13 14 14 14 14 15 16 17 18 19 20 20 20 20 21 21 22 22 22 23 23 24 25 27 27 27 28 28 29 30 30 30 30 30 30 30 31 32 32 33 33 33 34 35 37 38 38 39 39 40 40 40
5 5 5 5 5 4 4 3 4 4 6 8 9 10 11 11 11 11 11 10 10 10 11 11 11 10 10 9 10 11 11 11 11 10 10 11 12 13 13 15 16 17 18 19 20 20 20 20 21 21 22 22 23 23 24 25 25 26 27 28 28 29 29 29 30 30 30 30 30 30 30 30 31 31 31 32 32 33 34 36 37 38 38 38 38 38
6 6 6 6 5 5 4 4 4 4 5 7 8 8 10 11 11 12 11 11 10 10 9 9 9 9 9 9 9 9 9 9 9 8 8 9 11 12 13 15 15 16 17 18 19 19 20 21 21 21 22 22 23 24 24 25 26 26 27 28 28 29 29 30 30 30 31 31 31 31 30 30 29 30 30 30 31 31 32 33 35 36 36 37 36 36
6 6 6 6 6 5 5 5 5 4 4 5 6 7 8 10 11 11 11 11 10 10 9 9 9 9 8 8 8 7 7 7 7 8 9 10 11 12 13 14 15 15 16 16 17 17 18 19 20 21 22 22 23 24 24 25 26 26 27 27 28 29 29 30 30 30 31 31 31 31 31 30 30 29 29 29 30 30 31 31 32 33 34 35 35 35
7 7 7 7 7 6 6 6 6 5 4 4 4 5 7 9 10 11 11 11 11 10 9 9 9 8 8 7 7 6 6 6 7 8 9 11 11 12 12 13 13 14 15 15 16 16 16 17 18 19 21 22 23 24 24 25 25 26 26 27 28 28 29 29 29 30 30 31 31 32 32 31 31 30 29 28 29 29 30 30 30 31 32 33 34 34
8 8 8 8 7 7 7 7 7 6 5 5 5 6 8 9 10 10 11 12 12 12 10 10 9 8 8 7 6 6 6 7 7 8 9 10 11 11 11 12 13 14 15 16 16 16 16 17 17 18 20 21 22 23 24 25 25 26 26 26 27 28 29 29 29 30 30 31 31 31 32 32 32 31 31 29 29 28 28 29 29 29 29 30 31 32
8 8 8 8 8 7 8 8 8 8 7 6 6 7 9 9 10 11 11 12 13 13 11 10 10 9 9 8 7 7 8 8 8 8 9 10 10 11 11 11 12 13 14 15 16 17 17 18 18 18 19 20 21 22 24 25 26 26 27 27 28 28 29 30 30 30 31 31 31 31 31 32 32 32 31 31 30 29 28 28 28 28 28 28 28 29
8 8 8 9 9 8 8 9 10 10 9 8 8 8 9 10 10 11 11 12 13 13 12 11 10 9 9 9 8 8 8 8 9 9 9 10 10 11 12 12 13 14 15 16 17 18 19 19 20 20 21 21 22 23 24 25 26 27 28 28 29 29 30 30 30 31 31 31 32 32 32 32 31 31 31 31 31 31 30 30 29 28 27 26 26 27
8 8 9 9 10 10 10 10 11 11 11 10 10 10 10 10 11 11 11 12 12 13 13 11 10 8 8 8 7 7 7 8 8 9 10 10 10 12 13 14 15 16 18 18 19 20 21 22 22 22 23 23 24 25 25 26 27 28 28 29 30 30 31 31 31 31 31 31 32 32 32 32 32 32 31 31 31 31 31 30 30 29 28 26 25 24
9 9 9 10 10 11 11 11 12 12 12 12 11 11 11 11 11 11 11 11 12 13 12 11 10 8 7 7 7 7 6 6 7 8 8 9 10 12 14 15 17 18 19 20 21 22 23 24 25 25 25 25 26 26 27 27 28 29 29 30 30 31 31 31 31 31 31 32 32 32 32 32 32 32 32 31 31 30 30 30 30 29 28 26 25 23
9 9 10 11 11 12 13 13 13 13 13 13 13 12 12 12 12 12 12 11 11 11 11 10 9 8 6 6 6 6 5 5 6 7 8 9 10 12 13 16 18 20 22 23 23 24 24 26 27 27 27 27 28 28 28 29 29 30 30 30 31 31 32 32 32 32 32 32 32 33 33 33 33 32 32 31 31 30 30 29 29 29 28 27 25 24
11 11 11 12 13 13 14 14 14 14 14 14 14 13 13 13 12 12 12 11 11 11 10 10 9 8 7 6 5 6 6 6 6 7 8 9 10 12 14 17 20 22 24 25 26 26 26 27 28 28 29 29 29 30 30 31 31 32 32 32 32 32 32 33 33 33 33 34 34 34 34 34 34 34 33 32 31 30 30 29 29 28 28 27 26 25
12 12 13 13 14 14 15 15 15 15 15 15 14 14 14 14 13 13 12 11 12 11 11 10 9 8 7 6 6 6 7 7 8 8 9 10 12 15 17 19 22 23 24 26 27 27 28 28 29 29 30 30 31 31 32 32 33 33 34 34 34 34 34 34 35 35 35 35 35 36 35 35 35 35 34 34 33 32 31 30 29 28 27 27 27 26
12 13 14 14 15 15 16 16 16 16 16 15 15 14 14 14 14 13 12 12 11 11 11 10 9 8 8 8 8 8 8 9 10 11 12 14 16 18 21 22 23 23 24 25 26 26 27 28 29 29 30 30 31 32 32 33 33 34 35 35 36 36 36 36 37 37 37 37 37 37 37 36 36 35 35 35 35 34 33 32 31 29 28 27 27 27
13 14 14 14 15 15 16 16 17 17 16 16 16 15 15 15 14 14 13 13 12 11 12 12 10 10 9 10 10 10 11 12 13 15 17 19 21 22 23 23 24 24 24 24 25 26 27 27 28 28 29 30 31 32 32 33 33 34 35 35 36 36 37 37 37 38 38 39 39 38 38 37 37 36 36 36 36 36 35 34 33 32 31 29 28 28
13 14 14 14 15 16 16 17 17 17 17 16 16 16 16 15 15 15 14 14 13 11 12 13 13 12 12 12 12 13 14 15 16 17 20 21 22 23 23 24 24 24 24 25 25 26 26 27 28 29 30 31 31 32 33 33 33 34 34 35 35 36 36 37 37 38 38 39 39 39 39 39 38 38 37 37 37 37 37 37 36 36 34 33 31 30
13 14 14 14 15 16 16 17 17 17 17 17 17 17 17 16 16 16 15 15 15 13 12 13 15 15 14 13 14 15 16 16 18 19 20 22 22 22 23 23 24 24 25 25 26 26 27 28 28 29 31 32 33 34 34 34 35 35 35 36 37 38 38 38 38 38 39 39 40 40 40 40 40 40 40 39 39 38 37 38 38 38 38 37 36 34
13 14 14 15 16 16 16 17 17 18 18 17 18 17 18 17 17 17 16 16 15 14 13 12 14 17 17 16 16 17 17 17 18 18 19 21 22 21 22 22 23 24 25 26 26 27 27 28 29 30 32 33 35 36 36 36 37 37 38 38 39 40 41 41 40 40 40 41 41 42 42 42 42 42 42 41 41 40 39 39 39 39 40 39 39 38
13 13 14 15 15 16 16 16 17 17 17 17 17 17 18 18 17 17 17 16 16 15 13 12 13 17 19 18 18 18 18 18 18 17 17 19 21 21 21 22 23 24 25 26 28 28 29 29 30 32 33 35 37 38 38 39 39 39 40 41 42 42 43 43 43 43 43 43 43 43 44 44 43 42 42 42 42 41 41 40 40 40 40 40 40 40
12 12 13 13 14 15 15 15 16 16 16 16 16 16 17 17 17 17 17 17 16 16 15 12 11 15 18 19 19 19 19 19 18 16 15 18 20 21 21 23 24 25 26 27 28 29 30 31 32 33 35 37 38 39 40 40 41 41 42 43 44 45 45 45 45 45 45 46 46 47 47 46 45 44 42 42 42 42 42 41 41 40 40 40 40 40
12 12 12 13 13 14 14 14 15 15 15 16 16 16 16 16 16 16 16 16 16 16 16 13 10 13 17 17 19 20 19 18 17 16 17 19 21 21 22 24 26 27 28 28 29 30 31 32 33 35 36 38 39 40 41 41 42 42 43 44 45 46 46 46 46 46 47 48 49 50 50 49 48 46 44 42 41 41 41 41 41 40 39 39 40 40
13 13 13 13 13 13 14 14 14 14 15 15 16 16 16 16 16 16 15 16 16 16 17 15 11 13 16 16 17 19 19 19 18 18 19 21 23 23 24 26 27 28 29 30 30 31 31 33 34 36 37 39 40 41 42 42 42 43 43 45 46 47 47 47 47 48 49 50 51 52 52 51 49 47 45 43 42 41 40 40 40 40 39 38 38 38
14 14 14 14 14 13 14 14 13 14 14 15 15 15 16 16 16 16 15 15 16 15 18 17 12 11 16 19 19 19 20 20 20 21 22 23 25 27 28 29 30 31 31 31 32 32 33 34 35 36 38 39 41 42 43 43 43 44 44 46 47 48 49 49 50 51 52 53 53 52 51 50 49 48 46 44 42 41 41 40 39 39 39 38 38 38
16 16 16 15 15 14 14 14 13 14 14 14 15 15 15 16 16 17 16 16 15 14 18 18 11 11 18 22 22 22 22 23 23 24 25 26 28 31 32 33 34 35 34 34 35 35 35 36 37 38 39 41 42 43 44 44 45 45 46 47 48 49 50 51 52 53 53 53 53 51 50 49 48 47 46 44 43 42 41 41 40 40 40 40 40 40
17 17 17 16 15 15 15 15 14 14 15 15 16 17 17 17 17 17 17 17 17 16 19 19 14 15 20 24 25 26 27 27 27 28 30 31 32 34 35 36 38 38 38 38 39 39 38 38 39 40 41 42 43 44 44 45 46 47 47 48 49 51 52 53 54 54 53 53 51 49 48 47 47 46 46 45 44 43 42 42 41 41 41 42 43 44
18 18 18 17 17 16 16 16 15 15 16 16 17 19 20 20 21 20 20 20 21 22 21 20 20 20 21 24 30 32 32 32 32 33 35 36 37 38 39 40 41 42 42 42 42 42 41 41 42 42 43 44 45 46 46 47 47 48 49 50 51 52 53 54 55 55 53 52 50 48 47 46 45 45 46 46 45 45 44 44 44 44 44 45 45 46
18 18 19 19 19 19 19 18 18 18 18 18 18 20 22 23 23 23 23 23 26 26 23 21 25 26 21 22 31 35 36 37 37 37 38 40 41 43 43 44 45 46 45 45 45 45 44 44 44 45 46 47 48 49 50 50 50 50 51 51 53 54 55 56 56 55 55 53 52 50 48 46 45 45 45 45 46 46 46 46 46 46 47 47 48 49
19 19 20 21 21 21 21 21 21 20 20 20 20 20 22 24 24 24 24 25 27 29 26 23 27 29 25 25 30 34 37 40 41 41 42 43 44 46 48 49 49 49 49 49 48 48 48 47 47 48 49 50 51 52 52 53 53 53 54 54 55 57 58 58 57 56 55 54 54 52 51 49 48 46 45 45 46 46 47 47 48 48 49 49 50 50
21 20 21 22 22 22 23 22 22 22 22 21 21 21 22 25 26 26 26 27 29 31 29 27 29 30 29 30 34 36 39 42 44 45 45 47 48 49 51 52 53 53 53 52 51 51 50 50 51 52 53 54 54 54 55 56 57 57 57 58 59 60 61 61 60 58 56 55 54 53 53 52 51 50 49 48 48 48 48 49 50 50 51 51 52 52
23 22 22 24 23 23 24 24 25 25 25 24 24 23 25 28 29 29 29 30 31 33 33 33 34 33 33 35 38 40 42 44 46 47 49 50 51 52 53 54 56 56 56 55 54 54 53 54 55 57 57 57 57 57 58 59 60 61 61 62 62 63 64 64 63 61 59 57 55 55 55 54 54 53 53 52 52 51 51 51 52 52 53 54 54 54
26 25 26 27 27 25 25 27 28 29 30 29 26 26 29 32 32 32 32 33 34 35 37 38 38 37 38 40 42 43 44 46 48 49 51 53 54 55 55 56 57 57 57 57 57 57 58 59 60 61 61 60 60 60 61 63 63 63 64 64 65 65 65 65 65 63 62 59 58 57 57 57 57 56 56 56 56 56 55 55 55 55 56 57 57 57
29 29 29 31 31 29 28 30 31 32 34 32 29 29 33 35 34 34 34 35 36 38 40 41 41 41 42 44 44 45 47 48 50 52 53 54 56 56 57 58 58 58 58 58 59 60 62 63 63 63 62 62 63 64 65 65 66 66 66 66 65 65 65 64 64 63 62 61 60 60 59 59 59 60 60 60 60 60 59 59 59 59 59 59 60 60
31 32 33 34 36 34 32 33 34 36 37 34 31 33 35 36 36 37 36 37 38 40 42 43 43 44 45 47 48 48 49 51 52 54 55 56 57 58 59 60 59 59 60 61 62 63 64 65 65 64 65 65 66 67 68 67 67 67 67 66 65 64 63 63 62 62 62 62 62 62 62 62 62 63 63 63 63 63 63 62 62 62 62 62 61 61
34 35 36 37 38 38 37 37 38 40 40 37 36 37 38 38 40 40 39 40 41 42 43 44 44 45 47 50 51 52 52 54 55 57 58 59 59 60 60 61 62 63 64 64 65 66 66 67 67 68 69 70 70 70 70 69 68 67 67 66 65 64 63 62 62 62 62 62 63 63 64 64 64 64 64 64 64 65 64 64 64 64 64 64 63 63
35 37 38 39 40 42 41 40 42 43 42 41 41 41 41 42 43 43 43 44 45 45 45 46 46 48 50 52 53 54 55 57 58 60 60 61 62 62 62 63 65 66 67 67 68 68 69 70 71 72 72 72 72 71 70 69 68 67 67 66 65 64 64 63 62 62 62 62 63 63 63 64 63 63 63 64 64 64 64 64 64 64 64 64 64 64
38 39 40 41 43 44 45 44 45 46 45 45 45 45 45 46 46 46 47 48 49 49 49 49 50 51 53 55 56 57 58 59 61 62 63 63 64 65 66 66 67 68 68 70 71 72 73 74 74 74 73 73 72 71 70 69 69 68 68 67 66 65 65 64 63 62 62 62 62 62 63 63 63 63 63 63 64 64 64 64 63 64 64 64 63 63
40 41 42 44 45 47 48 48 48 48 48 47 47 47 48 48 49 49 50 51 52 52 53 54 54 55 56 57 58 60 61 62 64 66 67 67 68 69 69 70 70 71 72 73 74 74 75 75 75 74 74 73 73 72 71 71 70 70 69 69 68 66 65 64 64 63 63 63 63 63 63 63 63 63 63 64 64 64 64 64 64 64 65 64 64 63
42 43 44 46 47 48 49 50 51 51 50 50 49 50 51 52 52 53 54 54 55 56 56 57 58 59 60 61 62 64 66 68 69 70 71 71 72 72 73 74 74 74 75 75 75 75 75 75 75 75 75 74 74 73 73 73 73 72 71 70 69 68 67 66 66 66 66 65 64 64 63 63 64 64 64 64 64 64 65 65 65 65 66 66 66 65
44 45 46 48 49 50 51 52 52 53 53 53 53 53 54 55 56 57 57 57 57 59 60 61 62 63 64 66 68 69 70 71 71 72 73 74 74 74 75 75 75 76 76 76 76 77 77 77 77 77 77 76 76 75 75 74 74 74 73 72 71 70 70 69 69 68 68 66 65 64 64 63 63 64 64 64 65 65 66 67 67 67 67 67 67 67
46 47 48 49 50 51 53 54 54 54 55 56 56 56 56 57 58 58 58 58 60 63 65 65 65 67 68 70 71 71 72 73 73 74 74 75 75 76 76 76 77 77 78 78 78 78 79 78 78 79 78 78 77 76 75 75 74 74 74 73 73 72 72 72 71 70 69 68 67 66 65 65 64 64 64 65 65 66 67 68 69 69 69 69 69 69
48 49 50 51 52 53 54 56 57 57 56 56 57 58 58 58 58 58 59 61 64 66 68 68 69 70 71 72 73 74 75 75 76 76 76 77 77 78 78 79 79 80 80 79 79 79 79 79 79 79 78 78 77 76 76 75 75 75 74 74 74 74 74 74 73 72 71 70 69 69 68 68 67 67 66 66 67 67 68 69 70 71 72 72 72 72
51 52 53 53 54 55 57 59 60 59 58 57 58 60 60 59 59 60 63 65 67 68 69 70 71 72 74 75 76 77 77 77 78 78 79 79 80 81 81 81 81 81 81 80 80 80 79 79 78 78 78 77 77 77 77 77 77 76 76 76 76 76 76 76 75 75 74 73 73 73 72 72 72 71 71 71 70 70 70 71 72 73 73 74 75 76
55 56 56 56 56 58 59 61 61 61 60 60 60 61 62 63 63 65 67 69 70 70 72 72 73 74 76 77 77 78 78 78 79 80 81 82 82 82 82 81 81 80 79 79 79 78 78 78 77 77 78 78 78 79 79 79 79 79 79 79 79 78 78 78 78 78 78 77 77 78 78 77 77 77 77 77 76 76 76 76 76 77 77 78 78 79
58 58 59 58 59 60 61 62 62 62 61 61 62 63 64 65 66 68 70 71 72 73 74 74 75 76 77 77 78 78 79 80 81 82 83 83 82 82 80 79 78 78 77 76 77 77 77 78 78 79 80 80 80 81 81 81 81 81 81 81 81 81 81 81 81 82 82 82 83 83 84 84 84 84 84 83 83 83 83 83 83 83 84 84 84 84
60 60 60 60 61 62 62 62 63 62 62 62 63 64 66 67 69 71 73 74 75 75 76 77 77 78 78 79 79 80 81 82 82 82 82 82 80 79 78 78 77 76 76 76 77 77 78 79 80 81 82 82 82 83 83 83 83 84 84 84 84 85 85 85 85 86 87 88 89 89 90 90 91 91 91 91 91 91 91 91 91 90 90 90 90 90
62 62 62 62 62 63 63 63 63 64 64 65 66 67 69 71 73 74 75 76 76 77 78 78 79 79 80 81 81 81 82 82 81 81 80 80 79 78 78 78 77 77 77 78 78 79 80 81 82 83 84 84 85 85 86 86 86 87 87 88 88 89 89 89 89 90 90 91 92 93 94 94 94 95 95 95 95 94 94 94 94 94 94 94 95 95
63 64 65 65 65 65 65 65 67 69 68 68 71 72 73 75 76 76 77 77 78 78 79 79 80 80 81 81 81 81 80 80 79 79 78 78 78 78 78 78 78 79 79 80 81 81 82 83 85 86 87 88 89 89 90 90 90 90 91 91 92 92 92 93 93 94 95 95 96 96 96 96 96 95 95 95 95 95 95 95 95 95 95 96 97 97
66 68 69 68 68 69 69 70 72 73 72 73 76 77 77 77 77 78 78 79 79 79 78 78 79 79 80 80 80 79 79 78 78 78 78 79 79 79 80 81 81 82 83 84 84 86 87 88 89 90 91 92 92 93 93 93 93 93 93 94 94 95 95 96 97 98 98 99 99 98 98 98 98 98 98 98 99 99 99 99 99 99 98 98 99 100
70 71 71 71 73 74 74 74 75 76 76 77 79 79 79 79 79 79 79 79 79 79 79 79 80 80 80 80 79 79 79 80 80 81 81 82 82 83 84 84 85 86 87 88 89 90 91 92 92 93 93 94 94 95 95 96 96 96 96 97 98 99 99 99 100 101 101 102 102 102 103 103 103 104 104 104 104 104 105 104 104 104 104 103 103 104
72 72 73 75 77 77 77 78 80 80 80 79 80 80 80 81 80 80 80 80 81 81 81 81 81 81 81 81 81 81 82 83 84 84 85 86 86 87 88 88 89 90 91 92 93 93 94 94 95 95 96 97 97 98 98 99 100 100 101 101 102 102 102 102 103 103 104 105 106 106 107 107 108 109 109 109 109 109 109 109 109 109 109 109 109 108
73 74 76 79 80 79 79 81 82 81 81 81 81 81 81 81 81 82 82 82 82 82 82 82 82 82 83 83 84 85 86 87 88 89 89 90 90 90 91 92 93 94 94 95 95 96 96 97 98 99 99 99 100 100 101 101 102 103 103 104 104 105 105 106 106 107 107 108 109 110 110 111 111 112 112 112 113 113 114 113 113 112 113 114 114 114
Wind_Direction
213 220 222 221 221 231 246 269 294 331 350 358 6 10 12 10 3 354 342 331 321 314 307 304 303 304 303 303 303 300 297 295 293 295 302 310 319 323 324 325 328 331 333 337 342 344 344 343 340 339 338 337 336 334 333 333 334 334 335 337 339 340 342 344 345 348 350 352 354 357 0 4 6 9 10 13 15 16 16 16 17 19 20 20 21 21
222 225 226 224 226 235 248 268 290 327 351 3 13 19 20 18 17 12 2 350 339 329 323 323 325 326 324 322 319 314 311 311 312 312 313 316 321 324 326 329 331 334 338 341 345 346 345 344 343 341 341 340 339 338 336 335 334 333 333 334 336 337 338 339 341 343 345 347 348 351 354 358 1 4 6 8 10 11 13 13 14 15 16 18 19 19
231 231 231 227 226 235 251 269 286 316 346 3 15 23 23 21 19 15 10 4 356 345 338 337 339 338 335 331 327 323 320 322 327 330 330 330 330 331 332 332 333 336 339 342 345 346 345 343 343 343 342 342 341 340 339 338 337 335 335 334 334 335 335 336 337 339 340 342 343 345 347 351 354 357 360 2 4 6 8 9 10 11 11 13 15 16
238 237 234 229 225 236 255 269 280 301 332 354 10 19 20 18 17 13 7 2 357 350 343 339 337 338 342 341 336 331 327 330 336 339 341 341 339 337 336 335 335 337 340 343 344 345 345 343 341 341 340 340 340 340 339 339 338 337 337 336 336 336 336 335 335 335 336 337 339 340 342 344 347 350 353 355 357 359 2 4 6 7 7 7 9 11
243 242 236 229 226 239 257 270 277 287 310 332 346 354 357 0 5 5 1 355 351 344 337 331 329 331 338 342 339 336 329 332 338 340 341 342 342 342 341 340 340 341 343 344 344 344 344 342 340 338 337 338 338 338 338 337 337 337 337 336 336 336 336 336 335 334 334 334 334 336 337 339 341 343 346 348 350 353 355 358 360 2 4 4 4 5
246 243 237 230 230 243 260 272 275 279 294 309 316 321 327 336 345 351 351 349 347 342 333 326 322 320 322 325 327 326 322 325 333 337 338 340 344 345 345 345 344 343 343 342 342 342 342 342 340 338 337 336 336 336 336 335 335 335 335 335 334 334 334 334 335 335 335 334 334 334 334 335 336 337 339 342 344 346 348 350 352 355 358 0 1 1
248 243 237 233 236 249 265 274 276 277 283 293 301 307 315 325 332 338 340 342 343 341 333 325 321 318 313 310 311 312 314 319 326 331 333 336 340 343 345 345 344 342 341 340 340 340 341 342 341 340 338 336 335 335 334 334 334 334 334 334 333 333 333 333 333 334 334 334 334 334 333 333 333 333 334 335 337 338 339 341 344 347 349 353 356 357
249 244 240 240 245 256 268 277 279 277 278 284 291 299 310 319 324 330 332 334 339 340 336 327 324 321 313 307 306 305 308 315 319 323 328 333 339 344 346 347 347 346 344 343 343 343 343 342 341 340 339 337 336 334 333 332 332 332 332 332 332 332 333 333 333 334 333 333 332 332 331 331 331 331 331 332 333 334 334 335 337 339 341 344 348 351
250 247 246 249 253 262 272 279 282 280 280 282 286 294 304 312 317 323 326 330 335 339 340 335 330 328 319 312 311 309 310 313 315 320 326 335 344 350 352 351 350 348 346 344 342 341 340 339 338 337 336 335 334 333 333 331 330 330 329 329 329 330 331 332 333 333 333 332 331 330 329 328 328 328 328 329 330 331 332 333 333 334 335 336 339 343
255 255 256 257 260 266 273 280 284 282 281 282 285 291 298 303 309 315 319 325 330 336 343 342 339 343 338 329 327 326 326 322 320 325 333 343 352 354 351 348 345 343 340 338 337 335 334 333 333 332 331 331 330 330 330 329 328 327 327 326 326 327 328 329 330 330 330 330 330 329 328 327 326 325 325 325 326 327 328 330 330 331 331 331 331 334
262 263 263 264 265 269 274 279 284 285 283 284 286 290 294 297 303 309 313 319 323 329 340 345 350 0 358 348 344 343 344 339 334 337 342 347 349 346 343 340 338 336 335 333 332 331 330 330 329 329 328 328 327 327 327 327 326 325 325 324 324 324 325 325 326 326 326 326 327 326 326 325 325 324 323 322 322 322 323 324 325 326 327 327 326 326
266 267 267 268 268 270 274 278 283 286 286 286 287 289 291 293 298 303 308 312 314 319 332 344 351 357 360 356 352 349 347 342 338 338 337 337 335 333 332 332 331 330 329 329 329 328 328 327 327 327 326 326 326 326 325 325 324 324 324 323 322 323 323 323 323 323 323 323 324 323 323 323 322 322 321 320 319 319 318 318 319 320 321 321 321 320
268 269 269 270 270 271 274 278 281 284 285 286 286 287 289 290 295 299 301 303 305 311 323 335 338 339 345 345 342 341 340 335 332 329 326 324 324 323 323 323 324 324 325 326 326 326 326 326 326 326 326 325 325 325 324 324 323 323 322 322 321 321 321 321 321 321 321 321 321 321 320 320 319 319 318 318 317 316 315 314 314 313 314 315 315 315
268 269 270 270 272 273 275 278 281 282 283 283 283 285 286 288 291 293 295 296 299 304 310 316 318 318 323 324 322 325 325 322 320 319 318 316 316 316 316 317 319 321 322 323 323 324 324 325 326 326 326 326 326 325 325 324 323 322 322 321 320 320 320 320 319 319 319 319 319 319 318 318 317 317 316 315 314 314 313 312 310 309 309 308 308 308
270 270 271 272 274 275 276 278 280 281 281 281 282 283 284 286 288 289 291 292 292 294 296 298 301 303 306 308 307 308 311 310 309 310 310 311 311 312 314 316 318 319 321 322 323 324 325 325 326 327 327 327 327 327 327 325 324 323 322 322 321 320 320 319 319 318 318 318 318 317 317 317 316 315 314 313 312 311 311 310 308 307 306 304 302 302
272 273 273 274 275 276 277 278 278 279 280 280 281 281 282 283 284 285 287 287 286 284 286 289 292 293 295 298 298 298 301 303 304 306 307 308 310 312 314 316 318 320 322 323 325 326 327 327 328 328 329 329 328 328 327 325 324 323 322 321 320 320 319 319 319 318 318 318 317 317 316 315 315 314 313 311 310 309 309 308 307 306 306 304 301 299
275 277 278 278 278 277 278 278 278 278 279 280 280 280 281 281 282 283 283 284 285 284 282 285 288 289 290 292 294 296 297 299 302 306 307 308 309 312 314 316 319 322 323 325 326 328 328 328 329 329 329 329 328 327 325 324 322 321 321 321 320 320 319 319 319 319 318 317 317 316 315 315 314 313 312 311 310 308 307 306 306 306 306 305 304 301
279 281 282 281 281 281 280 280 279 279 279 279 279 279 280 280 281 282 282 282 283 284 283 284 287 289 290 291 292 294 296 298 302 305 307 308 309 312 315 318 321 322 324 326 327 327 327 328 328 328 328 328 327 326 324 322 321 320 319 320 320 320 320 320 320 320 319 318 317 316 315 314 313 312 311 309 308 307 306 305 305 306 306 306 305 303
283 285 287 286 286 285 283 282 282 281 280 280 280 280 280 280 281 281 282 283 282 282 282 281 282 285 289 292 293 295 298 299 301 305 307 307 308 312 316 319 322 323 324 325 325 325 325 325 326 326 327 326 325 324 322 321 320 319 318 319 319 320 320 319 319 319 319 318 317 316 314 313 312 311 310 308 307 305 304 303 304 305 305 305 305 303
288 291 293 293 292 291 289 287 286 284 283 282 282 282 282 282 283 282 283 284 284 285 284 281 281 281 283 289 293 295 298 300 302 306 308 307 309 313 317 320 322 322 323 323 322 322 322 322 323 324 324 324 323 322 320 319 319 318 318 318 318 318 318 318 317 317 316 316 315 314 313 312 311 310 309 307 306 305 303 302 302 303 303 303 303 302
291 293 296 297 297 296 295 293 290 287 285 285 284 285 285 286 286 286 287 287 288 290 289 288 292 287 283 285 291 296 300 301 305 311 312 310 309 313 315 317 318 319 320 320 319 318 318 318 319 321 321 321 320 319 318 317 317 316 316 316 316 316 316 316 315 314 313 313 312 311 311 310 309 309 308 307 305 304 303 301 300 300 301 300 300 300
290 292 295 297 297 299 299 298 296 293 289 287 286 286 286 286 286 287 288 290 291 294 294 294 300 298 293 292 293 296 300 301 305 311 313 311 309 310 312 312 314 316 316 315 315 314 314 314 316 317 318 318 318 317 316 316 315 315 315 315 315 315 314 314 313 312 311 310 309 309 308 308 307 306 306 305 304 303 301 300 299 299 299 299 298 299
288 290 291 294 294 295 296 297 297 296 294 291 289 288 287 286 286 286 287 288 290 294 294 293 299 304 300 297 296 296 297 298 302 307 310 309 308 308 309 310 311 313 313 312 311 311 311 312 313 315 315 315 315 315 315 314 314 313 313 313 314 313 312 311 310 309 309 309 309 308 307 306 305 305 304 303 302 300 299 297 297 297 297 297 297 296
286 287 289 290 291 292 292 293 293 293 293 292 291 290 289 290 290 290 290 289 290 295 292 290 301 309 297 294 296 297 295 296 300 305 307 306 305 306 307 309 310 311 312 311 309 309 309 309 310 312 313 314 314 314 314 313 312 311 311 311 311 311 310 309 308 307 308 308 308 308 307 305 304 303 301 300 299 297 296 295 294 294 295 295 295 295
285 287 287 286 286 286 287 288 289 290 291 293 295 294 294 296 295 295 295 294 294 294 289 291 305 305 295 295 297 295 293 296 300 304 305 305 304 304 305 306 308 309 310 309 308 309 309 308 308 310 311 312 312 312 312 311 310 309 309 309 310 310 309 308 306 306 307 307 308 307 306 305 304 303 301 299 297 295 293 292 291 291 292 293 294 295
283 285 286 286 286 284 283 285 285 285 288 292 294 295 297 297 297 297 297 296 295 290 288 295 301 296 295 299 298 295 295 298 301 303 304 305 304 302 303 304 306 307 307 307 307 308 308 307 307 308 310 310 310 310 309 308 307 306 305 306 307 308 308 307 306 305 306 306 306 305 305 304 304 303 301 299 296 294 291 290 289 290 291 292 293 293
281 283 285 286 287 287 287 288 288 288 289 290 290 293 295 295 296 297 297 295 293 289 291 298 296 291 294 296 293 294 297 299 300 301 302 302 302 302 302 303 305 305 306 306 306 307 307 306 306 307 308 309 308 308 307 306 305 304 303 303 304 306 307 307 306 305 305 305 304 304 304 303 303 302 300 299 296 292 290 288 288 289 290 291 292 292
280 282 285 286 287 289 290 291 291 291 292 292 293 294 295 296 298 298 297 296 293 292 295 298 292 292 297 294 289 291 295 296 298 300 300 299 299 300 302 303 303 304 305 305 305 306 306 305 305 306 306 306 306 305 304 304 304 303 302 302 303 305 307 307 305 304 303 303 303 302 302 302 302 301 300 298 296 292 289 287 286 286 288 289 290 290
279 281 285 286 287 290 291 291 292 291 292 293 294 296 297 298 298 298 299 298 296 296 299 297 294 296 298 295 292 293 294 295 298 299 299 298 298 299 301 302 303 303 304 304 305 305 304 304 304 305 304 304 304 304 304 304 304 304 304 303 304 305 306 306 305 303 302 301 300 300 300 300 300 299 298 298 296 293 290 287 285 284 285 287 288 289
280 281 283 283 285 287 290 291 291 290 290 290 293 297 297 294 294 296 297 297 296 297 298 296 296 298 297 294 294 294 294 295 297 297 297 298 298 299 300 301 301 303 303 304 304 304 304 304 304 304 304 304 304 304 305 305 305 305 305 304 304 305 305 305 305 303 302 300 299 298 298 298 298 298 297 297 296 295 293 290 287 285 284 285 286 287
280 281 282 282 281 283 287 288 288 289 289 289 293 298 295 291 292 294 295 295 295 295 295 295 296 297 295 294 294 294 294 294 295 295 296 296 297 298 298 299 300 301 302 303 303 304 304 304 304 304 304 304 304 304 304 305 305 304 304 304 304 304 304 304 304 303 301 300 299 297 297 296 297 297 297 296 296 295 294 293 291 289 287 286 286 287
281 281 282 282 281 282 284 284 285 286 285 287 293 294 291 290 293 293 294 294 294 294 294 295 295 295 295 294 294 293 293 293 294 294 294 295 296 296 297 298 299 301 301 302 302 303 302 302 302 302 302 302 302 303 303 304 304 303 303 302 302 303 303 303 302 301 300 299 298 297 296 296 296 296 296 296 295 294 294 293 292 291 290 289 288 288
281 281 282 282 281 282 283 284 285 284 284 288 292 290 288 290 292 292 293 293 292 292 293 294 294 294 294 294 293 293 293 293 293 293 293 294 295 295 296 298 299 300 300 300 300 300 300 300 300 300 301 301 301 302 302 302 302 301 301 301 301 301 301 301 300 300 298 298 297 296 296 296 295 295 295 294 294 293 293 292 292 291 291 290 290 289
280 281 282 282 282 283 284 285 285 284 285 290 291 290 291 292 291 292 292 291 290 290 291 292 293 293 292 292 292 293 293 293 292 292 293 294 294 295 296 298 298 299 299 299 299 299 299 299 299 300 300 300 301 301 301 301 301 301 300 300 300 300 300 299 299 298 297 297 296 296 295 295 294 294 294 293 293 292 291 291 290 290 290 290 290 290
281 282 283 284 284 285 285 286 286 285 288 291 291 292 293 292 292 293 293 292 291 291 292 292 292 292 292 291 292 292 292 292 293 293 293 294 295 296 297 297 297 298 298 298 299 299 299 299 299 299 300 300 300 301 301 301 301 300 300 299 299 299 299 298 298 297 297 296 296 295 295 294 294 293 293 292 291 290 289 289 288 288 289 289 289 289
283 284 284 285 285 286 286 287 288 288 289 291 292 293 293 293 293 294 293 294 294 294 294 294 293 293 292 292 292 292 292 293 293 293 294 295 295 296 296 297 297 297 298 298 299 299 299 299 300 300 300 300 301 301 301 301 300 300 299 299 299 298 298 298 298 297 297 296 296 295 295 294 294 293 292 291 290 289 288 287 286 286 286 287 287 287
283 284 285 285 286 286 287 288 289 289 290 291 292 293 293 293 293 293 293 294 296 296 296 295 294 293 292 292 293 293 293 294 294 295 295 296 297 297 298 298 298 299 299 299 299 300 300 300 300 300 300 301 301 301 301 300 300 299 299 299 298 298 298 298 298 298 297 296 296 296 295 295 294 293 293 291 290 288 287 285 285 284 284 284 284 284
283 284 285 285 286 287 288 289 289 290 291 292 293 293 293 294 294 294 294 295 296 297 296 295 294 294 294 294 295 295 295 296 296 297 297 298 298 298 299 299 300 300 300 300 300 300 300 300 300 300 300 300 300 300 300 300 299 300 300 299 299 299 298 298 298 298 298 297 297 296 296 295 294 294 293 292 290 289 287 286 285 284 283 283 283 282
283 284 284 285 286 287 288 288 290 291 292 293 293 294 294 295 295 296 296 297 297 296 296 295 295 295 296 296 296 296 297 297 297 297 297 297 298 298 299 299 299 299 299 300 300 300 299 299 299 299 299 299 299 299 299 299 299 300 299 299 298 298 298 298 298 297 297 297 297 296 296 295 295 294 293 292 291 289 288 287 286 285 284 283 282 282
283 283 284 284 285 286 287 288 289 289 291 292 294 294 295 295 296 297 297 297 296 295 295 295 295 295 295 295 296 296 296 296 296 296 296 297 297 297 298 298 298 298 298 299 299 298 298 298 298 298 298 298 298 298 298 298 298 298 298 297 297 297 297 297 297 297 296 296 296 295 295 295 294 294 293 291 290 289 288 287 286 285 284 283 282 281
283 283 283 284 285 286 287 287 287 287 290 292 294 294 294 295 296 297 296 295 294 294 294 294 295 295 295 295 296 296 296 296 297 297 297 297 297 297 297 297 297 297 297 297 297 297 297 297 297 297 297 297 297 297 297 297 297 297 296 296 296 296 296 296 296 295 295 294 294 294 294 293 293 293 292 291 290 289 288 287 286 285 284 283 282 281
284 284 284 284 285 286 286 286 286 288 290 292 292 293 293 295 295 295 293 292 292 292 293 293 294 294 294 295 295 296 297 297 297 297 297 297 296 296 296 296 296 296 297 296 296 296 296 296 296 296 296 296 297 297 297 297 297 296 296 296 296 296 296 295 295 294 293 293 292 292 292 292 291 291 290 290 289 288 287 286 286 285 284 283 282 281
284 284 284 284 284 284 284 285 287 288 289 290 291 292 293 294 294 292 291 291 291 292 292 292 293 293 293 294 295 295 295 295 295 295 295 295 295 295 295 295 296 296 296 296 296 296 296 295 295 295 296 296 296 296 296 296 296 296 296 296 295 295 295 295 294 293 293 292 292 292 291 291 291 290 290 289 288 288 287 286 286 285 284 283 282 281
284 284 284 284 284 284 284 285 286 287 289 290 291 292 292 292 291 290 289 290 290 291 291 291 292 292 292 293 293 293 293 293 293 293 293 294 294 295 295 295 296 296 296 296 295 296 296 296 296 295 295 296 296 295 295 295 295 295 295 295 295 295 294 294 294 293 293 293 292 292 292 292 292 291 291 290 290 289 288 288 287 286 285 284 283 282
283 283 283 283 283 283 284 285 287 288 290 290 289 289 290 289 288 288 289 289 290 290 290 291 291 291 291 292 292 292 292 292 292 293 293 294 294 295 295 295 295 296 296 296 295 295 295 295 295 295 294 294 294 294 294 294 294 294 294 295 295 294 294 294 294 294 293 293 293 293 293 293 293 292 292 292 291 290 290 289 288 287 286 285 284 283
283 282 282 282 283 283 285 287 288 288 288 288 288 288 288 288 288 289 289 289 290 290 290 291 291 291 291 291 291 292 292 292 292 293 293 293 294 294 294 294 294 295 294 294 294 294 294 293 293 293 293 293 293 293 293 294 294 294 294 294 294 293 293 293 293 292 292 292 292 292 292 292 292 291 291 291 291 290 290 289 288 288 287 286 285 284
284 283 283 284 285 286 287 288 288 287 288 289 289 288 288 289 289 290 290 290 290 290 290 290 291 291 291 291 291 291 291 291 292 292 292 292 292 293 293 293 293 293 293 293 293 293 293 293 293 293 293 293 293 293 293 292 292 292 292 292 291 291 291 291 291 291 291 291 292 292 291 291 291 291 291 291 290 290 290 289 289 288 288 287 286 285
284 284 285 287 288 288 288 288 288 288 290 291 290 290 290 290 290 290 291 291 290 290 290 290 290 290 290 290 290 290 291 291 291 292 292 292 292 292 292 292 292 292 292 293 293 293 293 294 294 293 293 293 292 292 291 291 290 290 290 290 290 290 290 290 291 291 291 292 292 292 292 293 293 292 292 292 292 292 292 291 291 291 290 289 288 287
284 286 288 289 288 288 289 290 290 291 291 291 290 291 291 291 291 291 291 290 290 290 290 290 290 291 291 291 291 291 291 292 292 292 293 292 292 292 292 292 292 292 293 293 293 294 294 293 293 292 292 292 291 291 291 291 291 291 291 291 291 291 292 292 292 293 293 294 294 294 294 295 295 295 295 295 294 294 294 294 294 293 293 292 292 291
286 288 288 287 287 289 291 292 291 291 291 290 290 291 291 291 291 291 290 290 291 291 291 292 292 292 292 292 292 292 292 293 293 293 293 293 293 293 292 293 293 293 293 293 293 293 293 293 293 293 293 293 293 293 293 293 293 293 294 294 294 295 295 295 295 295 295 296 296 296 295 295 295 294 294 294 293 292 292 291 292 292 292 291 291 290
285 286 286 287 289 291 291 290 290 290 291 290 290 291 290 290 290 290 290 291 291 291 291 291 291 291 291 291 291 292 292 292 293 293 293 293 292 292 292 292 292 292 292 292 293 293 293 293 294 294 294 295 295 295 296 296 296 296 297 297 297 297 297 296 296 295 295 295 295 294 294 293 293 292 292 291 291 291 290 289 288 288 289 290 290 289
Height
5854 5855 5855 5855 5856 5856 5856 5856 5856 5856 5855 5855 5854 5853 5852 5852 5851 5850 5849 5849 5849 5848 5848 5847 5847 5846 5846 5846 5845 5845 5844 5843 5843 5843 5843 5842 5842 5841 5840 5839 5837 5836 5834 5833 5831 5830 5828 5826 5825 5823 5822 5820 5819 5817 5815 5814 5812 5810 5808 5806 5804 5802 5800 5798 5796 5794 5792 5790 5787 5785 5783 5780 5778 5775 5772 5770 5767 5764 5761 5758 5755 5751 5748 5746 5743 5741
5854 5855 5855 5855 5855 5855 5855 5855 5855 5855 5855 5854 5854 5853 5852 5852 5851 5850 5849 5849 5848 5848 5847 5847 5847 5846 5846 5845 5845 5844 5844 5843 5843 5842 5842 5842 5841 5840 5839 5838 5837 5835 5834 5832 5831 5829 5828 5826 5825 5823 5821 5820 5818 5817 5815 5813 5811 5809 5807 5806 5804 5802 5800 5798 5796 5794 5792 5790 5788 5785 5783 5781 5778 5776 5774 5771 5769 5766 5763 5760 5757 5754 5751 5749 5746 5744
5854 5854 5855 5855 5855 5855 5855 5855 5855 5855 5854 5854 5854 5853 5852 5852 5851 5850 5849 5848 5848 5847 5847 5846 5846 5845 5845 5844 5844 5843 5843 5842 5842 5842 5842 5841 5840 5839 5838 5837 5836 5834 5833 5831 5830 5829 5827 5826 5824 5823 5821 5819 5818 5816 5814 5812 5811 5809 5807 5805 5803 5801 5800 5797 5795 5793 5791 5790 5788 5785 5783 5781 5779 5777 5774 5772 5770 5768 5765 5762 5760 5757 5754 5752 5749 5747
5854 5854 5854 5854 5854 5854 5854 5854 5854 5854 5854 5854 5854 5853 5853 5852 5851 5850 5849 5849 5848 5847 5846 5846 5845 5845 5844 5844 5843 5843 5842 5842 5842 5841 5841 5841 5840 5839 5838 5836 5835 5833 5832 5831 5829 5828 5827 5825 5824 5822 5820 5819 5817 5815 5813 5812 5810 5808 5806 5804 5802 5801 5799 5797 5795 5793 5791 5789 5787 5785 5783 5781 5779 5777 5775 5773 5771 5769 5767 5764 5762 5759 5757 5754 5752 5749
5853 5853 5853 5853 5854 5854 5854 5854 5854 5854 5854 5854 5853 5853 5852 5852 5851 5850 5849 5848 5848 5847 5846 5845 5845 5844 5844 5843 5843 5842 5842 5842 5841 5841 5840 5840 5839 5838 5837 5835 5834 5832 5831 5830 5829 5827 5826 5825 5823 5821 5820 5818 5816 5814 5812 5811 5809 5807 5805 5804 5801 5799 5798 5796 5794 5792 5790 5788 5786 5784 5783 5781 5779 5777 5775 5773 5771 5769 5767 5765 5763 5760 5758 5756 5754 5751
5852 5852 5853 5853 5853 5853 5853 5853 5853 5853 5853 5853 5853 5852 5852 5851 5850 5850 5849 5848 5847 5846 5845 5845 5844 5844 5843 5843 5842 5842 5841 5841 5841 5840 5840 5839 5838 5837 5836 5835 5833 5832 5831 5829 5828 5827 5826 5824 5823 5821 5819 5817 5815 5813 5812 5810 5808 5806 5804 5802 5800 5798 5796 5795 5793 5791 5789 5788 5786 5784 5782 5780 5778 5776 5775 5773 5771 5769 5767 5765 5764 5762 5760 5757 5755 5753
5852 5852 5852 5852 5852 5852 5852 5853 5853 5853 5853 5852 5852 5852 5851 5850 5850 5849 5848 5848 5847 5846 5845 5844 5843 5843 5842 5842 5841 5841 5840 5840 5840 5839 5839 5838 5837 5836 5835 5834 5833 5832 5830 5829 5828 5827 5825 5824 5822 5820 5819 5817 5815 5813 5811 5809 5807 5805 5803 5801 5799 5797 5795 5793 5792 5790 5788 5786 5785 5783 5781 5779 5777 5775 5774 5772 5771 5769 5768 5766 5764 5762 5760 5758 5756 5754
5851 5851 5851 5851 5851 5852 5852 5852 5852 5852 5852 5851 5851 5851 5850 5849 5849 5848 5847 5847 5846 5845 5844 5843 5842 5842 5841 5840 5840 5840 5839 5839 5839 5838 5838 5837 5836 5835 5834 5833 5832 5831 5830 5829 5828 5826 5825 5823 5821 5820 5818 5816 5814 5812 5810 5808 5806 5804 5802 5800 5798 5796 5794 5792 5790 5789 5787 5785 5783 5781 5779 5778 5776 5774 5772 5771 5769 5768 5766 5765 5763 5762 5760 5759 5757 5755
5850 5850 5850 5850 5850 5851 5851 5851 5851 5851 5851 5850 5850 5850 5849 5848 5848 5847 5847 5846 5845 5844 5843 5842 5841 5840 5840 5839 5839 5838 5838 5838 5837 5837 5836 5836 5835 5834 5833 5832 5831 5830 5829 5828 5827 5825 5824 5822 5821 5819 5817 5815 5813 5811 5809 5807 5805 5803 5801 5799 5797 5795 5793 5791 5789 5787 5786 5784 5782 5780 5778 5776 5774 5773 5771 5769 5768 5766 5764 5763 5762 5760 5759 5758 5756 5755
5849 5849 5849 5849 5850 5850 5850 5850 5850 5850 5850 5849 5849 5848 5848 5847 5847 5846 5846 5845 5844 5843 5842 5841 5840 5839 5839 5838 5838 5837 5837 5837 5836 5836 5835 5835 5834 5833 5832 5831 5830 5829 5828 5827 5826 5824 5823 5821 5819 5817 5815 5814 5812 5810 5808 5806 5804 5802 5800 5798 5795 5793 5791 5789 5788 5786 5784 5782 5780 5779 5777 5775 5773 5771 5769 5767 5766 5764 5763 5761 5760 5759 5758 5756 5755 5754
5848 5848 5848 5848 5849 5849 5849 5849 5849 5849 5848 5848 5848 5847 5847 5846 5845 5845 5844 5844 5843 5842 5842 5840 5839 5838 5838 5837 5837 5836 5836 5836 5835 5835 5834 5833 5833 5832 5831 5830 5829 5828 5826 5825 5824 5823 5821 5819 5817 5815 5813 5812 5810 5808 5806 5804 5802 5800 5798 5796 5794 5792 5790 5787 5786 5784 5782 5780 5779 5777 5775 5773 5771 5770 5768 5766 5764 5762 5761 5759 5758 5757 5756 5755 5753 5752
5847 5847 5847 5847 5848 5848 5848 5847 5847 5847 5847 5846 5846 5846 5845 5845 5844 5844 5843 5842 5842 5841 5841 5840 5838 5838 5837 5837 5836 5836 5835 5835 5834 5834 5833 5832 5831 5831 5830 5829 5827 5826 5825 5823 5822 5820 5819 5817 5815 5813 5812 5810 5808 5806 5804 5802 5800 5798 5796 5794 5792 5790 5788 5786 5784 5782 5780 5778 5777 5775 5773 5771 5770 5768 5766 5764 5762 5760 5759 5757 5756 5755 5754 5752 5751 5750
5846 5846 5846 5846 5846 5846 5846 5846 5846 5846 5845 5845 5844 5844 5844 5843 5843 5842 5841 5841 5840 5840 5839 5839 5838 5837 5837 5836 5835 5835 5834 5834 5833 5833 5832 5831 5830 5829 5828 5827 5826 5825 5823 5822 5820 5818 5817 5815 5814 5812 5810 5808 5806 5804 5803 5800 5798 5796 5794 5792 5790 5788 5786 5784 5782 5780 5778 5776 5774 5772 5771 5769 5767 5765 5764 5762 5760 5758 5756 5755 5753 5752 5751 5750 5749 5747
5845 5845 5845 5845 5845 5845 5845 5844 5844 5844 5844 5843 5843 5842 5842 5841 5841 5840 5840 5840 5839 5838 5838 5837 5837 5837 5836 5835 5835 5834 5833 5833 5832 5831 5830 5830 5829 5828 5827 5826 5824 5823 5822 5820 5819 5817 5815 5814 5812 5810 5808 5806 5804 5803 5801 5799 5797 5794 5792 5790 5788 5785 5784 5782 5780 5778 5775 5774 5772 5770 5768 5766 5764 5762 5761 5759 5757 5756 5754 5752 5750 5749 5748 5747 5745 5744
5844 5843 5843 5843 5843 5843 5843 5842 5842 5842 5842 5841 5841 5841 5840 5840 5839 5839 5838 5838 5837 5837 5836 5836 5836 5835 5835 5834 5833 5833 5832 5831 5831 5830 5829 5828 5827 5826 5825 5823 5822 5821 5820 5818 5817 5816 5814 5812 5810 5808 5806 5805 5803 5801 5799 5797 5795 5792 5790 5788 5785 5783 5781 5779 5777 5775 5773 5771 5769 5767 5765 5763 5761 5759 5757 5755 5754 5752 5751 5749 5747 5746 5744 5743 5742 5741
5842 5842 5842 5841 5841 5841 5841 5840 5840 5840 5839 5839 5839 5838 5838 5838 5837 5837 5836 5836 5835 5836 5835 5834 5834 5834 5833 5832 5832 5831 5830 5830 5829 5828 5827 5826 5825 5824 5822 5821 5820 5819 5818 5816 5815 5813 5812 5810 5808 5807 5805 5803 5801 5799 5797 5795 5792 5790 5788 5786 5783 5781 5779 5777 5775 5773 5771 5768 5766 5764 5762 5760 5758 5756 5754 5752 5750 5749 5747 5746 5744 5743 5741 5740 5738 5737
5841 5840 5840 5840 5839 5839 5839 5838 5838 5838 5837 5837 5837 5836 5836 5836 5835 5835 5834 5834 5833 5833 5833 5833 5832 5831 5831 5830 5830 5829 5828 5828 5827 5826 5825 5824 5823 5822 5820 5819 5818 5817 5815 5814 5813 5811 5810 5808 5806 5804 5802 5800 5798 5796 5794 5792 5790 5787 5785 5783 5780 5778 5776 5774 5772 5770 5768 5765 5763 5760 5758 5756 5754 5752 5750 5748 5746 5745 5743 5742 5740 5739 5738 5736 5735 5733
5839 5839 5838 5838 5837 5837 5837 5836 5836 5835 5835 5835 5834 5834 5834 5833 5833 5832 5832 5832 5831 5831 5831 5831 5830 5828 5828 5828 5828 5827 5826 5826 5825 5824 5823 5822 5820 5820 5819 5818 5816 5815 5813 5812 5810 5809 5808 5806 5804 5802 5800 5798 5796 5793 5791 5789 5786 5784 5782 5780 5777 5775 5772 5771 5769 5767 5764 5762 5759 5757 5754 5753 5751 5749 5747 5744 5742 5741 5739 5737 5736 5735 5734 5732 5731 5730
5838 5837 5836 5836 5835 5835 5835 5834 5834 5833 5833 5833 5832 5832 5831 5831 5831 5830 5830 5829 5829 5829 5829 5829 5829 5826 5825 5825 5825 5825 5824 5823 5823 5822 5821 5820 5818 5818 5817 5816 5814 5813 5811 5810 5808 5806 5805 5803 5801 5799 5797 5795 5792 5790 5788 5785 5783 5780 5778 5776 5773 5771 5769 5766 5765 5762 5760 5758 5755 5753 5750 5748 5746 5745 5743 5741 5739 5737 5735 5733 5732 5730 5729 5728 5727 5725
5836 5836 5835 5834 5834 5833 5833 5832 5832 5831 5831 5830 5830 5830 5829 5829 5828 5828 5828 5827 5827 5827 5827 5827 5827 5825 5824 5823 5822 5822 5822 5821 5820 5820 5819 5818 5816 5815 5814 5813 5812 5810 5809 5807 5805 5803 5801 5800 5798 5796 5794 5792 5789 5787 5784 5782 5779 5777 5774 5772 5770 5767 5765 5762 5760 5758 5755 5752 5750 5747 5745 5743 5741 5740 5738 5736 5735 5733 5731 5729 5727 5726 5725 5724 5722 5720
5835 5834 5834 5833 5832 5832 5831 5831 5830 5830 5829 5829 5828 5828 5827 5827 5826 5826 5826 5825 5825 5825 5824 5825 5825 5823 5822 5821 5820 5819 5819 5818 5817 5817 5816 5815 5814 5813 5812 5811 5809 5808 5806 5805 5803 5801 5799 5797 5795 5793 5791 5789 5786 5784 5781 5779 5776 5773 5771 5769 5766 5764 5761 5759 5756 5753 5751 5748 5745 5742 5739 5737 5735 5734 5733 5731 5730 5728 5727 5725 5723 5722 5720 5719 5717 5716
5833 5833 5832 5832 5831 5831 5830 5829 5829 5828 5828 5827 5826 5826 5825 5825 5825 5824 5824 5824 5823 5823 5822 5822 5823 5821 5819 5820 5819 5817 5816 5815 5815 5814 5813 5812 5811 5810 5809 5808 5807 5806 5804 5802 5800 5798 5797 5795 5792 5790 5788 5786 5783 5780 5778 5775 5772 5770 5767 5765 5762 5760 5757 5754 5752 5749 5746 5743 5741 5738 5735 5732 5730 5728 5727 5725 5724 5723 5721 5719 5718 5716 5715 5714 5712 5711
5832 5831 5831 5830 5830 5829 5829 5828 5827 5827 5826 5825 5825 5824 5824 5823 5823 5823 5823 5822 5822 5821 5820 5820 5821 5820 5818 5817 5816 5816 5814 5813 5812 5812 5811 5810 5808 5807 5806 5804 5803 5802 5801 5799 5797 5795 5794 5792 5790 5787 5785 5782 5779 5777 5774 5771 5768 5765 5763 5760 5757 5755 5752 5749 5746 5743 5741 5738 5736 5733 5730 5728 5725 5723 5721 5720 5718 5717 5715 5713 5712 5710 5709 5708 5707 5705
5830 5829 5829 5829 5828 5828 5827 5827 5826 5825 5825 5824 5823 5823 5822 5822 5821 5821 5821 5821 5820 5820 5818 5818 5819 5819 5816 5814 5814 5813 5812 5811 5810 5809 5808 5807 5805 5803 5802 5800 5799 5798 5797 5795 5793 5792 5790 5788 5786 5784 5781 5779 5775 5772 5769 5766 5763 5761 5758 5755 5752 5750 5747 5743 5740 5738 5735 5732 5730 5728 5725 5722 5720 5718 5716 5714 5712 5711 5709 5707 5706 5704 5703 5702 5700 5699
5828 5827 5827 5827 5827 5826 5825 5825 5825 5824 5823 5823 5822 5821 5821 5820 5820 5819 5819 5819 5819 5818 5816 5816 5817 5817 5814 5812 5811 5809 5808 5808 5807 5806 5804 5803 5802 5800 5798 5796 5795 5793 5792 5791 5789 5787 5786 5784 5782 5780 5777 5774 5771 5768 5765 5762 5759 5756 5753 5750 5747 5744 5741 5738 5735 5732 5729 5727 5725 5722 5720 5717 5715 5712 5710 5708 5706 5705 5703 5702 5700 5699 5697 5696 5694 5693
5826 5826 5825 5825 5824 5824 5824 5823 5823 5823 5822 5821 5820 5819 5819 5818 5817 5817 5817 5817 5816 5815 5814 5814 5814 5813 5813 5810 5806 5804 5803 5803 5803 5802 5800 5798 5797 5795 5793 5792 5790 5789 5787 5786 5784 5782 5781 5779 5777 5774 5772 5769 5766 5763 5760 5757 5754 5751 5748 5745 5742 5739 5736 5732 5729 5726 5724 5721 5719 5717 5714 5712 5709 5707 5704 5703 5701 5699 5697 5696 5694 5693 5691 5690 5688 5687
5824 5824 5823 5822 5822 5821 5821 5821 5821 5820 5820 5819 5819 5818 5817 5816 5815 5815 5814 5814 5812 5811 5812 5813 5810 5809 5811 5809 5803 5800 5799 5798 5798 5797 5796 5794 5791 5789 5788 5787 5785 5783 5782 5781 5779 5777 5775 5774 5771 5769 5767 5764 5761 5758 5755 5752 5749 5746 5743 5740 5737 5734 5731 5727 5724 5720 5717 5715 5713 5710 5708 5706 5704 5701 5699 5697 5695 5693 5691 5690 5688 5687 5685 5684 5682 5680
5822 5822 5821 5820 5820 5819 5819 5818 5818 5817 5817 5817 5816 5816 5815 5813 5812 5812 5812 5811 5808 5807 5809 5810 5807 5805 5807 5806 5801 5799 5796 5794 5792 5792 5791 5789 5787 5784 5782 5780 5779 5778 5776 5775 5774 5772 5770 5768 5766 5764 5761 5758 5755 5752 5749 5746 5743 5741 5737 5734 5731 5728 5725 5722 5719 5716 5712 5709 5707 5704 5702 5700 5698 5695 5693 5691 5689 5687 5685 5684 5682 5680 5679 5677 5675 5673
5819 5819 5819 5817 5817 5817 5816 5815 5815 5814 5814 5814 5813 5813 5812 5810 5809 5809 5809 5807 5805 5804 5804 5804 5803 5802 5802 5800 5797 5796 5794 5790 5788 5787 5785 5783 5781 5779 5777 5774 5772 5771 5770 5769 5767 5766 5764 5762 5760 5758 5755 5752 5749 5746 5743 5740 5737 5734 5731 5728 5725 5722 5719 5716 5713 5710 5707 5704 5701 5699 5696 5694 5691 5689 5687 5685 5683 5681 5679 5677 5675 5674 5672 5670 5668 5666
5816 5816 5816 5815 5815 5814 5813 5812 5812 5811 5811 5811 5811 5810 5809 5807 5806 5805 5805 5803 5801 5800 5799 5798 5798 5798 5797 5795 5793 5791 5789 5786 5784 5782 5780 5777 5775 5774 5771 5769 5766 5764 5763 5762 5760 5759 5757 5755 5753 5750 5747 5744 5742 5739 5736 5733 5730 5727 5724 5721 5718 5715 5712 5709 5706 5704 5701 5698 5696 5693 5690 5688 5685 5683 5681 5679 5677 5675 5673 5671 5669 5667 5665 5663 5661 5659
5813 5813 5812 5811 5811 5812 5811 5809 5808 5807 5806 5807 5808 5808 5805 5803 5802 5802 5801 5799 5798 5796 5794 5793 5793 5792 5790 5789 5788 5786 5783 5781 5779 5777 5774 5772 5769 5768 5766 5763 5761 5759 5757 5755 5753 5751 5749 5747 5744 5741 5739 5736 5734 5731 5729 5726 5723 5720 5717 5714 5711 5708 5705 5702 5699 5696 5694 5691 5689 5686 5684 5682 5679 5677 5674 5672 5670 5668 5666 5664 5662 5660 5658 5656 5654 5652
5810 5809 5809 5807 5806 5808 5808 5806 5805 5804 5802 5803 5805 5804 5801 5799 5798 5798 5797 5795 5794 5792 5790 5789 5788 5786 5784 5783 5782 5780 5778 5775 5773 5771 5768 5766 5764 5761 5759 5757 5756 5754 5751 5749 5747 5744 5742 5739 5736 5734 5731 5729 5726 5724 5722 5719 5716 5713 5710 5707 5704 5701 5698 5695 5692 5689 5687 5684 5682 5679 5677 5675 5672 5670 5667 5665 5663 5661 5659 5657 5654 5652 5651 5649 5646 5644
5806 5805 5804 5803 5801 5802 5803 5802 5800 5799 5798 5800 5801 5799 5796 5795 5794 5793 5792 5791 5789 5787 5785 5784 5782 5781 5779 5776 5774 5773 5771 5769 5767 5764 5762 5760 5758 5755 5753 5751 5749 5747 5745 5743 5740 5737 5734 5731 5728 5726 5724 5721 5719 5716 5714 5711 5709 5705 5702 5699 5697 5694 5691 5688 5685 5682 5679 5676 5674 5672 5669 5667 5665 5662 5660 5657 5655 5653 5651 5649 5647 5645 5643 5641 5639 5636
5802 5801 5800 5798 5796 5797 5798 5797 5795 5793 5793 5795 5796 5793 5792 5790 5789 5788 5787 5785 5783 5782 5781 5780 5778 5775 5773 5770 5768 5767 5765 5762 5760 5757 5755 5753 5751 5749 5747 5744 5742 5740 5737 5735 5732 5729 5726 5723 5720 5718 5715 5712 5710 5708 5705 5703 5700 5697 5694 5691 5688 5686 5683 5681 5678 5674 5672 5669 5666 5663 5661 5659 5657 5654 5652 5649 5647 5645 5643 5641 5639 5637 5635 5633 5631 5628
5798 5797 5795 5794 5792 5791 5791 5791 5790 5788 5789 5790 5789 5788 5787 5784 5783 5782 5781 5778 5776 5777 5776 5775 5773 5770 5767 5764 5762 5760 5758 5755 5752 5749 5748 5746 5744 5741 5740 5738 5735 5732 5729 5726 5724 5721 5718 5715 5712 5710 5707 5704 5702 5699 5697 5694 5691 5688 5686 5683 5680 5678 5675 5673 5670 5667 5664 5661 5658 5655 5653 5651 5649 5646 5644 5641 5639 5637 5634 5632 5630 5628 5626 5625 5622 5620
5794 5793 5791 5790 5788 5786 5785 5785 5784 5783 5784 5784 5783 5782 5780 5778 5777 5776 5774 5771 5769 5769 5769 5767 5765 5763 5760 5757 5755 5753 5751 5749 5746 5742 5740 5739 5737 5734 5732 5730 5727 5724 5721 5718 5716 5712 5709 5707 5704 5701 5698 5695 5693 5690 5688 5685 5682 5679 5677 5674 5672 5670 5667 5664 5661 5659 5656 5653 5650 5647 5645 5643 5641 5638 5636 5633 5631 5629 5626 5623 5621 5619 5618 5616 5614 5611
5789 5788 5786 5785 5783 5781 5779 5779 5778 5778 5778 5778 5777 5776 5773 5772 5771 5769 5768 5766 5762 5761 5761 5759 5756 5754 5752 5750 5748 5745 5743 5741 5738 5734 5732 5731 5728 5725 5723 5720 5718 5715 5712 5709 5707 5704 5700 5697 5694 5692 5689 5686 5683 5681 5678 5676 5673 5671 5668 5666 5663 5661 5658 5655 5653 5650 5647 5644 5642 5639 5636 5634 5632 5630 5628 5625 5623 5621 5618 5615 5613 5610 5608 5607 5605 5602
5784 5783 5781 5779 5777 5776 5774 5773 5772 5771 5771 5771 5771 5769 5767 5765 5763 5761 5761 5761 5756 5753 5752 5751 5747 5745 5743 5741 5739 5737 5734 5732 5730 5726 5722 5721 5719 5716 5713 5710 5708 5705 5702 5699 5697 5694 5690 5687 5684 5681 5679 5676 5674 5671 5669 5666 5663 5661 5659 5656 5654 5651 5649 5646 5644 5640 5638 5635 5632 5630 5627 5625 5622 5620 5618 5615 5613 5611 5609 5606 5604 5602 5599 5598 5596 5594
5779 5778 5776 5774 5772 5770 5769 5767 5766 5765 5764 5764 5763 5762 5760 5758 5756 5754 5753 5753 5749 5745 5743 5741 5739 5737 5734 5732 5731 5728 5725 5723 5721 5719 5715 5712 5710 5708 5705 5702 5699 5696 5692 5690 5687 5684 5679 5677 5674 5671 5668 5666 5664 5661 5659 5656 5653 5651 5648 5646 5644 5641 5639 5637 5634 5631 5629 5626 5623 5621 5618 5616 5613 5610 5608 5606 5603 5601 5599 5597 5594 5592 5590 5588 5586 5584
5773 5772 5770 5768 5767 5765 5763 5762 5761 5759 5758 5757 5755 5754 5753 5751 5749 5747 5746 5744 5741 5737 5735 5733 5731 5729 5726 5723 5722 5720 5717 5713 5712 5711 5708 5704 5701 5699 5696 5693 5689 5686 5683 5681 5677 5673 5669 5667 5664 5661 5658 5655 5654 5652 5649 5646 5644 5642 5639 5636 5634 5632 5629 5627 5624 5622 5619 5617 5614 5612 5609 5607 5604 5601 5599 5596 5594 5592 5589 5587 5584 5582 5580 5578 5576 5574
5767 5765 5764 5763 5761 5759 5757 5755 5753 5753 5754 5752 5748 5747 5746 5744 5743 5741 5738 5736 5732 5729 5726 5724 5722 5719 5717 5714 5713 5711 5708 5704 5702 5700 5697 5694 5691 5687 5685 5683 5678 5675 5674 5671 5668 5663 5660 5657 5654 5651 5647 5645 5644 5642 5639 5637 5635 5632 5629 5627 5625 5622 5620 5617 5614 5612 5609 5607 5604 5602 5599 5597 5595 5592 5590 5587 5585 5582 5580 5577 5574 5572 5569 5567 5565 5563
5760 5758 5757 5756 5754 5752 5750 5747 5745 5746 5747 5745 5741 5739 5738 5737 5736 5733 5729 5726 5724 5721 5718 5717 5714 5711 5708 5706 5704 5701 5698 5695 5692 5689 5685 5682 5680 5677 5675 5672 5668 5666 5664 5661 5657 5654 5651 5648 5645 5642 5638 5636 5634 5632 5629 5627 5625 5622 5619 5617 5615 5612 5610 5607 5605 5602 5599 5597 5594 5592 5589 5587 5584 5582 5579 5577 5574 5572 5570 5567 5564 5561 5559 5556 5554 5552
5753 5750 5749 5749 5747 5744 5742 5741 5739 5739 5739 5737 5734 5732 5729 5728 5726 5723 5719 5717 5715 5712 5709 5708 5707 5702 5699 5698 5696 5692 5689 5686 5683 5680 5675 5672 5670 5667 5664 5662 5659 5657 5655 5652 5647 5644 5641 5639 5636 5632 5629 5627 5625 5622 5619 5618 5615 5612 5610 5607 5605 5602 5600 5597 5595 5592 5589 5587 5584 5581 5578 5576 5573 5571 5568 5566 5563 5561 5559 5556 5553 5550 5547 5544 5542 5540
5745 5742 5740 5740 5739 5735 5735 5734 5732 5731 5731 5730 5728 5724 5721 5719 5716 5713 5710 5708 5707 5704 5700 5699 5698 5695 5691 5690 5687 5683 5680 5677 5673 5670 5666 5662 5659 5656 5653 5651 5649 5647 5645 5642 5638 5635 5633 5629 5626 5623 5619 5617 5615 5612 5610 5608 5605 5602 5600 5597 5594 5592 5589 5586 5584 5581 5578 5575 5573 5570 5567 5564 5561 5559 5556 5554 5551 5549 5546 5544 5541 5538 5535 5532 5529 5527
5737 5734 5731 5731 5730 5727 5727 5727 5725 5723 5724 5722 5719 5716 5712 5709 5707 5704 5701 5699 5698 5695 5692 5690 5688 5686 5682 5680 5677 5673 5670 5667 5662 5658 5656 5652 5649 5645 5642 5640 5639 5637 5634 5631 5628 5626 5623 5619 5617 5613 5609 5607 5605 5601 5599 5597 5594 5591 5588 5585 5583 5580 5577 5575 5572 5569 5566 5564 5561 5558 5555 5552 5549 5545 5543 5540 5537 5535 5533 5530 5527 5524 5521 5518 5515 5512
5727 5724 5722 5722 5721 5719 5721 5721 5717 5714 5715 5712 5708 5707 5704 5699 5697 5694 5691 5690 5688 5685 5683 5680 5677 5675 5672 5669 5666 5662 5659 5655 5651 5648 5645 5642 5638 5635 5632 5630 5628 5627 5624 5621 5618 5616 5613 5609 5606 5603 5598 5595 5593 5590 5587 5584 5582 5579 5576 5574 5571 5567 5564 5562 5560 5557 5554 5551 5548 5545 5542 5539 5536 5533 5530 5526 5523 5521 5518 5515 5512 5510 5507 5503 5499 5496
5718 5713 5711 5713 5714 5712 5713 5713 5706 5702 5705 5704 5698 5696 5695 5691 5687 5684 5681 5680 5678 5675 5673 5670 5667 5664 5660 5657 5655 5651 5648 5645 5641 5638 5636 5632 5629 5626 5623 5620 5618 5616 5613 5610 5607 5604 5601 5598 5595 5591 5587 5583 5580 5578 5575 5572 5570 5567 5564 5561 5558 5555 5552 5548 5546 5544 5541 5538 5535 5532 5528 5525 5522 5519 5516 5513 5509 5506 5504 5501 5497 5494 5492 5489 5484 5480
5708 5704 5703 5704 5705 5703 5703 5703 5696 5692 5696 5694 5686 5683 5685 5682 5677 5674 5670 5667 5665 5664 5662 5659 5656 5653 5649 5645 5643 5640 5636 5633 5630 5627 5625 5623 5619 5616 5613 5610 5608 5605 5601 5598 5595 5592 5589 5586 5582 5578 5575 5571 5568 5565 5562 5559 5556 5554 5552 5548 5545 5542 5539 5535 5532 5529 5526 5523 5520 5516 5513 5510 5506 5503 5500 5497 5494 5490 5487 5485 5481 5478 5476 5472 5465 5460
5697 5696 5696 5694 5692 5692 5693 5691 5686 5684 5686 5683 5675 5672 5673 5671 5667 5664 5660 5656 5652 5650 5649 5647 5643 5641 5637 5634 5631 5628 5625 5621 5618 5615 5613 5611 5608 5605 5602 5599 5596 5593 5589 5586 5583 5580 5576 5573 5570 5566 5563 5559 5556 5552 5549 5545 5541 5540 5538 5535 5530 5527 5524 5521 5517 5514 5510 5507 5504 5500 5496 5494 5490 5486 5482 5479 5476 5473 5469 5466 5462 5458 5457 5456 5449 5440
5689 5689 5687 5681 5680 5683 5683 5678 5673 5672 5672 5670 5667 5664 5660 5658 5656 5653 5649 5646 5642 5638 5636 5634 5631 5628 5625 5622 5619 5616 5613 5610 5606 5604 5601 5599 5596 5593 5590 5587 5583 5580 5577 5574 5570 5567 5564 5560 5557 5553 5549 5545 5542 5538 5534 5530 5526 5524 5522 5518 5514 5510 5507 5504 5501 5499 5495 5490 5487 5483 5480 5477 5474 5470 5465 5462 5458 5456 5454 5453 5449 5442 5436 5434 5434 5429
5681 5680 5676 5671 5672 5674 5672 5665 5661 5660 5658 5656 5656 5653 5648 5646 5644 5641 5638 5635 5632 5628 5625 5623 5620 5617 5615 5612 5609 5606 5603 5599 5595 5592 5589 5587 5584 5581 5577 5574 5571 5567 5564 5561 5558 5554 5550 5546 5542 5538 5534 5530 5526 5523 5519 5515 5511 5509 5506 5502 5497 5494 5491 5488 5485 5483 5479 5475 5470 5467 5464 5461 5457 5454 5450 5445 5441 5436 5434 5434 5435 5433 5425 5415 5409 5408